GW4187 Weather Reports


time (UTC)temp
C
wind
direction
speed
KPH
gust
KPH
rain 1hr
cm
rain 24hr
cm
rain mn
cm
humidity
%
barometer
mb
20260505125000 15 137 0.0 1.6 0.00 0.00 0.00 83 1014.9
20260505124600 15 137 0.0 3.2 0.00 0.00 0.00 83 1014.8
20260505124000 15 137 0.0 3.2 0.00 0.00 0.00 83 1014.9
20260505123102 15 137 0.0 3.2 0.00 0.00 0.00 84 1014.8
20260505123000 15 137 0.0 3.2 0.00 0.00 0.00 84 1014.8
20260505122000 13 238 0.0 1.6 0.00 0.00 0.00 86 1014.8
20260505121559 13 238 0.0 0.0 0.00 0.00 0.00 86 1014.8
20260505121000 13 238 0.0 0.0 0.00 0.00 0.00 87 1014.7
20260505120104 13 238 0.0 0.0 0.00 0.00 0.00 88 1014.8
20260505120005 13 238 0.0 0.0 0.00 0.00 0.00 88 1014.8
20260505114601 12 238 0.0 0.0 0.00 0.00 0.00 88 1014.7
20260505113058 12 238 0.0 0.0 0.00 0.00 0.00 88 1014.5
20260505111558 12 238 0.0 0.0 0.00 0.00 0.00 88 1014.2
20260505110958 11 238 0.0 0.0 0.00 0.00 0.00 88 1014.0
20260505101958 11 238 0.0 0.0 0.00 0.00 0.00 86 1013.7
20260505101609 11 238 0.0 0.0 0.00 0.00 0.00 86 1013.7
20260505100958 11 238 0.0 0.0 0.00 0.00 0.00 86 1013.7
20260505100106 11 238 0.0 0.0 0.00 0.00 0.00 86 1013.7
20260505095959 11 238 0.0 0.0 0.00 0.00 0.00 86 1013.7
20260505094958 11 238 0.0 0.0 0.00 0.00 0.00 86 1013.7
20260505094556 11 238 0.0 0.0 0.00 0.00 0.00 86 1013.6
20260505093956 11 238 0.0 0.0 0.00 0.00 0.00 85 1013.7
20260505093103 11 238 0.0 0.0 0.00 0.00 0.00 85 1013.5
20260505092956 11 238 0.0 0.0 0.00 0.00 0.00 85 1013.5
20260505091956 11 238 0.0 0.0 0.00 0.00 0.00 85 1013.5
20260505091557 11 238 0.0 0.0 0.00 0.00 0.00 85 1013.4
20260505090956 11 238 0.0 0.0 0.00 0.00 0.00 85 1013.3
20260505090056 11 238 0.0 0.0 0.00 0.00 0.00 85 1013.0
20260505090000 11 238 0.0 0.0 0.00 0.00 0.00 85 1013.1
20260505084958 11 238 0.0 0.0 0.00 0.00 0.00 84 1013.0
20260505084605 11 238 0.0 0.0 0.00 0.00 0.00 84 1013.0
20260505083958 11 238 0.0 0.0 0.00 0.00 0.00 84 1012.9
20260505083102 11 238 0.0 0.0 0.00 0.00 0.00 84 1012.9
20260505082958 11 238 0.0 0.0 0.00 0.00 0.00 84 1013.0
20260505081959 11 238 0.0 0.0 0.00 0.00 0.00 83 1012.9
20260505081623 11 238 0.0 0.0 0.00 0.00 0.00 83 1013.0
20260505080958 11 238 0.0 0.0 0.00 0.00 0.00 83 1013.1
20260505075959 11 238 0.0 0.0 0.00 0.00 0.00 83 1013.1
20260505074958 11 238 0.0 0.0 0.00 0.00 0.00 82 1013.0
20260505074556 11 238 0.0 0.0 0.00 0.00 0.00 82 1012.8
20260505073958 11 238 0.0 0.0 0.00 0.00 0.00 82 1012.9
20260505073103 12 238 0.0 0.0 0.00 0.00 0.00 81 1013.1
20260505072956 12 238 0.0 0.0 0.00 0.00 0.00 81 1013.2
20260505071959 12 238 0.0 0.0 0.00 0.00 0.00 81 1013.3
20260505071557 12 238 0.0 0.0 0.00 0.00 0.00 81 1013.2
20260505070958 12 238 0.0 0.0 0.00 0.00 0.00 81 1013.4
20260505070100 12 238 0.0 0.0 0.00 0.00 0.00 81 1013.5
20260505064959 12 238 0.0 0.0 0.00 0.00 0.00 80 1013.7
20260505064556 12 238 0.0 0.0 0.00 0.00 0.00 81 1013.7
20260505063958 12 238 0.0 0.0 0.00 0.00 0.00 80 1013.8
20260505063112 12 238 0.0 0.0 0.00 0.00 0.00 80 1013.7
20260505062958 12 238 0.0 0.0 0.00 0.00 0.00 80 1013.8
20260505061958 12 238 0.0 0.0 0.00 0.00 0.00 80 1013.9
20260505061556 12 238 0.0 0.0 0.00 0.00 0.00 79 1014.1
20260505060956 13 238 0.0 0.0 0.00 0.00 0.00 79 1014.2
20260505060056 13 238 0.0 0.0 0.00 0.00 0.00 79 1014.3
20260505054958 13 238 0.0 0.0 0.00 0.00 0.00 78 1014.4
20260505054600 13 238 0.0 0.0 0.00 0.00 0.00 78 1014.5
20260505054000 13 238 0.0 0.0 0.00 0.00 0.00 78 1014.4
20260505053059 13 238 0.0 0.0 0.00 0.00 0.00 79 1014.4
20260505053001 13 238 0.0 0.0 0.00 0.00 0.00 79 1014.3
20260505051559 13 238 0.0 0.0 0.00 0.00 0.00 78 1014.3
20260505051000 13 238 0.0 0.0 0.00 0.00 0.00 78 1014.7
20260505050105 13 238 0.0 0.0 0.00 0.00 0.00 77 1014.5
20260505041559 15 238 0.0 0.0 0.00 0.00 0.00 73 1014.8
20260505041000 15 238 0.0 0.0 0.00 0.00 0.00 73 1014.6
20260505040100 15 238 0.0 0.0 0.00 0.00 0.00 73 1014.7
20260505040001 15 238 0.0 0.0 0.00 0.00 0.00 73 1014.6
20260505034959 15 238 0.0 0.0 0.00 0.00 0.00 73 1014.7
20260505034559 15 238 0.0 0.0 0.00 0.00 0.00 72 1014.9
20260505034000 16 238 0.0 0.0 0.00 0.00 0.00 72 1014.8
20260505033059 16 238 0.0 0.0 0.00 0.00 0.00 71 1014.7
20260505032959 16 238 0.0 0.0 0.00 0.00 0.00 71 1014.7
20260505031959 16 238 0.0 0.0 0.00 0.00 0.00 70 1014.9
20260505031559 16 238 0.0 0.0 0.00 0.00 0.00 70 1014.9
20260505030959 16 238 0.0 0.0 0.00 0.00 0.00 69 1014.8
20260505030059 17 238 0.0 0.0 0.00 0.00 0.00 69 1014.7
20260505030002 17 238 0.0 0.0 0.00 0.00 0.00 69 1014.7
20260505025000 17 238 0.0 0.0 0.00 0.00 0.00 68 1014.9
20260505024559 17 238 0.0 0.0 0.00 0.00 0.00 67 1014.8
20260505023104 18 238 0.0 0.0 0.00 0.00 0.00 65 1014.8
20260505022958 18 238 0.0 0.0 0.00 0.00 0.00 64 1014.8
20260505021557 18 238 0.0 0.0 0.00 0.00 0.00 62 1015.0
20260505020058 18 238 0.0 0.0 0.00 0.00 0.00 60 1015.0
20260505020001 19 238 0.0 0.0 0.00 0.00 0.00 60 1015.0
20260505014608 19 238 0.0 0.0 0.00 0.00 0.00 58 1015.0
20260505013959 20 238 0.0 0.0 0.00 0.00 0.00 57 1014.9
20260505013059 20 238 0.0 0.0 0.00 0.00 0.00 56 1015.0
20260505012959 20 238 0.0 0.0 0.00 0.00 0.00 56 1015.0
20260505011959 20 238 0.0 0.0 0.00 0.00 0.00 55 1014.8
20260505011559 20 238 0.0 0.0 0.00 0.00 0.00 54 1015.0
20260505010959 20 238 0.0 0.0 0.00 0.00 0.00 54 1015.0
20260505010117 21 238 0.0 0.0 0.00 0.00 0.00 53 1014.8
20260505010003 21 238 0.0 0.0 0.00 0.00 0.00 53 1014.9
20260505005000 21 238 0.0 0.0 0.00 0.00 0.00 52 1014.9
20260505004600 21 238 0.0 0.0 0.00 0.00 0.00 52 1014.9
20260505003959 21 238 0.0 1.6 0.00 0.00 0.00 51 1014.9
20260505003100 21 238 0.0 1.6 0.00 0.00 0.00 51 1014.7
20260505002959 21 238 0.0 1.6 0.00 0.00 0.00 50 1014.8
20260505001959 21 238 0.0 1.6 0.00 0.00 0.00 49 1014.6
20260505001559 21 238 0.0 1.6 0.00 0.00 0.00 49 1014.6
20260505000959 22 238 0.0 3.2 0.00 0.00 0.00 49 1014.7
20260505000100 22 238 0.0 1.6 0.00 0.00 0.00 49 1014.6
20260505000001 22 238 0.0 1.6 0.00 0.00 0.00 49 1014.6
20260504234959 22 238 1.6 4.8 0.00 0.00 0.00 48 1014.5
20260504234558 22 238 0.0 3.2 0.00 0.00 0.00 48 1014.6
20260504233959 22 238 0.0 3.2 0.00 0.00 0.00 48 1014.6
20260504233059 22 238 0.0 4.8 0.00 0.00 0.00 48 1014.7
20260504232959 22 238 0.0 4.8 0.00 0.00 0.00 48 1014.7
20260504231959 22 238 0.0 3.2 0.00 0.00 0.00 48 1014.6
20260504231600 22 238 0.0 3.2 0.00 0.00 0.00 48 1014.5
20260504230959 22 238 0.0 3.2 0.00 0.00 0.00 47 1014.6
20260504230059 22 238 0.0 4.8 0.00 0.00 0.00 45 1014.7
20260504230001 22 238 0.0 3.2 0.00 0.00 0.00 46 1014.6
20260504225000 22 238 0.0 8.0 0.00 0.00 0.00 43 1014.6
20260504224559 22 234 0.0 6.4 0.00 0.00 0.00 45 1014.7
20260504223958 22 234 0.0 8.0 0.00 0.00 0.00 44 1014.8
20260504223102 22 238 0.0 6.4 0.00 0.00 0.00 42 1014.9
20260504222958 22 238 0.0 6.4 0.00 0.00 0.00 42 1014.9
20260504221958 23 227 1.6 4.8 0.00 0.00 0.00 41 1014.7
20260504221611 23 227 0.0 4.8 0.00 0.00 0.00 42 1014.8
20260504220958 23 227 0.0 6.4 0.00 0.00 0.00 42 1014.8
20260504220059 23 227 0.0 6.4 0.00 0.00 0.00 43 1014.7
20260504220001 23 227 0.0 6.4 0.00 0.00 0.00 43 1014.7
20260504214959 23 236 3.2 11.3 0.00 0.00 0.00 41 1014.8
20260504214608 23 237 3.2 11.3 0.00 0.00 0.00 41 1014.9
20260504213112 23 230 0.0 3.2 0.00 0.00 0.00 40 1014.9
20260504213000 23 230 0.0 3.2 0.00 0.00 0.00 40 1014.9
20260504211959 23 230 1.6 6.4 0.00 0.00 0.00 40 1014.7
20260504211559 23 236 0.0 3.2 0.00 0.00 0.00 41 1014.7
20260504211000 23 236 1.6 3.2 0.00 0.00 0.00 40 1014.7
20260504210101 23 236 0.0 8.0 0.00 0.00 0.00 40 1014.5
20260504210003 23 236 0.0 8.0 0.00 0.00 0.00 39 1014.6
20260504210001 23 236 0.0 8.0 0.00 0.00 0.00 39 1014.6
20260504205000 23 234 3.2 6.4 0.00 0.00 0.00 40 1014.8
20260504204605 23 234 0.0 6.4 0.00 0.00 0.00 39 1014.8
20260504203059 23 232 1.6 6.4 0.00 0.00 0.00 39 1014.9
20260504201959 23 232 0.0 6.4 0.00 0.00 0.00 38 1015.0
20260504201559 23 226 0.0 6.4 0.00 0.00 0.00 39 1014.9
20260504200959 24 226 0.0 6.4 0.00 0.00 0.00 38 1015.1
20260504200103 24 234 0.0 4.8 0.00 0.00 0.00 38 1015.0
20260504200001 24 234 0.0 4.8 0.00 0.00 0.00 39 1015.0
20260504195000 25 234 1.6 8.0 0.00 0.00 0.00 38 1015.3
20260504194601 25 234 0.0 1.6 0.00 0.00 0.00 38 1015.2
20260504193959 25 234 0.0 3.2 0.00 0.00 0.00 37 1015.4
20260504193102 25 234 0.0 3.2 0.00 0.00 0.00 38 1015.4
20260504192958 25 234 0.0 3.2 0.00 0.00 0.00 37 1015.5
20260504191958 24 234 0.0 1.6 0.00 0.00 0.00 37 1015.6
20260504191603 24 234 0.0 3.2 0.00 0.00 0.00 38 1015.7
20260504190958 24 234 0.0 4.8 0.00 0.00 0.00 38 1015.6
20260504190058 25 234 0.0 6.4 0.00 0.00 0.00 38 1015.8
20260504185958 25 234 1.6 6.4 0.00 0.00 0.00 38 1015.9
20260504184959 25 238 0.0 3.2 0.00 0.00 0.00 37 1015.9
20260504184558 25 240 0.0 3.2 0.00 0.00 0.00 36 1015.9
20260504183058 25 119 0.0 3.2 0.00 0.00 0.00 37 1016.2
20260504182958 25 119 0.0 3.2 0.00 0.00 0.00 37 1016.2
20260504181958 24 97 0.0 3.2 0.00 0.00 0.00 36 1016.2
20260504181600 24 97 0.0 3.2 0.00 0.00 0.00 38 1016.1
20260504180958 24 97 0.0 1.6 0.00 0.00 0.00 38 1016.2
20260504174958 24 209 0.0 3.2 0.00 0.00 0.00 37 1016.3
20260504174559 23 225 0.0 1.6 0.00 0.00 0.00 38 1016.5
20260504173100 24 94 0.0 3.2 0.00 0.00 0.00 36 1016.8
20260504173001 24 82 1.6 3.2 0.00 0.00 0.00 35 1016.8
20260504171959 23 80 0.0 8.0 0.00 0.00 0.00 38 1016.8
20260504171601 23 80 0.0 8.0 0.00 0.00 0.00 38 1016.9
20260504170959 23 80 0.0 6.4 0.00 0.00 0.00 37 1016.8
20260504150959 22 109 0.0 4.8 0.00 0.00 0.00 40 1017.9
20260504150111 22 114 0.0 1.6 0.00 0.00 0.00 40 1017.8